SCP
-0 -0 -0 -0 -0 -0 -0 -0 -0 -0 -0 -0 -0 -0 -0 -0 -0 0 0 0 0 0 0 -0 0 0 0 0 -0 0 0 0 0 0 0 0 0 0 0 0 0 0 0 0 0 0 0
-0 -0 -0 -0 -0 -0 -0 -0 -0 -0 -0 -0 -0 -0 -0 -0 -0 -0 0 0 -0 0 0 0 -0 0 0 -0 0 0 0 0 0 0 0 0 0 0 0 0 0 0 0 0 0 0 0
0 0 0 -0 -0 -0 -0 -0 0 0 -0 -0 -0 -0 -0 0 0 -0 -0 0 0 -0 -0 0 0 0 -0 -0 0 0 0 0 0 0 0 0 0 0 0 0 0 0 0 0 0 0 0
0 0 0 0 0 0 0 0 0 0 0 -0 -0 -0 -0 0 0 0 0 0 0 -0 0 0 0 0 -0 0 0 0 0 -0 0 0 0 0 0 0 0 0 0 0 0 0 0 0 0
0 0 0 0 0 0 0 0 0 0 0 0 0 0 -0 -0 0 0 0 0 0 0 0 0 0 0 -0 -0 0 0 0 0 0 0 0 0 0 0 0 0 0 0 0 0 0 0 0
0 0 0 0 0 0 0 0 0 0 0 0 0 0 -0 -0 -0 0 0 0 0 0 0 0 0 0 -0 0 0 0 0 0 0 0 0 0 0 0 0 0 0 0 0 0 0 0 0
0 0 0 0 0 0 0 0 0 0 0 -0 -0 0 0 -0 -0 -0 0 0 0 0 0 0 0 0 -0 0 0 -0 0 0 0 0 -0 0 0 0 0 0 0 0 0 0 0 0 0
0 0 0 0 0 0 0 0 0 0 0 0 0 0 -0 0 -0 -0 0 0 0 0 0 0 -0 0 0 -0 -0 -0 0 0 0 0 0 0 -0 0 0 0 0 0 0 0 0 0 0
0 0 0 0 0 0 0 0 0 0 0 -0 0 0 0 -0 0 0 0 0 0 0 0 0 0 -0 -0 0 0 -0 0 0 0 0 0 0 0 0 0 0 0 0 0 0 0 0 0
0 0 0 0 0 0 0 0 0 0 -0 0 -0 0 -0 0 0 0 0 0 0 0 0 0 0 -0 -0 -0 -0 0 0 0 0 0 0 0 0 0 0 0 0 0 0 0 0 0 0
0 0 0 0 0 0 0 0 0 -0 0 -0 0 -0 0 0 0 0 0 0 0 0 0 0 0 0 0 0 0 0 0 0 0 0 0 0 0 0 0 0 0 0 0 0 0 0 0
0 0 0 0 0 0 0 0 0 0 -0 -0 -0 0 0 0 0 0 0 0 0 0 0 0 0 0 0 0 0 0 0 0 0 0 0 0 0 0 0 0 0 0 0 0 0 0 0
0 0 0 0 0 0 0 0 0 -0 -0 -0 0 -0 0 0 0 0 0 0 0 0 0 0 0 0 0 0 0 0 0 0 0 0 0 0 0 0 0 0 0 0 0 0 0 0 0
0 0 0 0 0 0 0 0 0 0 -0 -0 -0 -0 0 0 -0 -0 0 0 0 0 0 0 0 0 0 0 0 0 0 0 0 0 0 0 0 0 0 0 0 0 0 0 0 0 0
0 0 0 0 0 0 0 0 0 0 -0 -0 -0 0 0 0 0 0 0 0 0 0 0 0 0 0 0 0 0 0 0 0 0 0 0 0 0 0 0 0 0 0 0 0 0 0 0
0 0 0 0 0 0 0 0 0 0 0 -0 0 0 0 0 0 0 0 0 0 0 0 0 0 0 0 0 0 0 0 0 0 0 0 0 0 0 0 0 0 0 0 0 0 0 0
0 0 0 0 0 0 0 0 0 0 -0 0 0 0 0 0 0 0 0 0 0 0 0 0 0 0 0 0 0 0 0 0 0 0 0 0 0 0 0 0 0 0 0 0 0 0 0
0 0 0 0 0 0 0 0 0 0 -0 0 0 0 0 0 0 0 0 0 0 0 0 0 0 0 0 0 0 0 0 0 0 0 0 0 0 0 0 0 0 0 0 0 0 0 0
0 0 0 0 0 0 0 0 0 0 -0 0 0 0 0 0 0 0 0 0 0 0 0 0 0 0 0 0 0 0 0 0 0 0 0 0 0 0 0 0 0 0 0 0 0 0 0
0 0 0 0 0 0 0 0 0 0 0 0 0 0 0 0 0 0 0 0 0 0 0 0 0 0 0 0 0 0 0 0 0 0 0 0 0 0 0 0 0 0 0 0 0 0 0
0 0 0 0 0 0 0 0 0 0 0 0 0 0 0 0 0 0 0 0 0 0 0 0 0 0 0 0 0 0 0 0 0 0 0 0 0 0 0 0 0 0 0 0 0 0 0
0 0 0 0 0 0 0 0 0 0 0 0 0 0 0 0 0 0 0 0 0 0 0 0 0 0 0 0 0 0 0 0 0 0 0 0 0 0 0 0 0 0 0 0 -0 0 -0
0 0 0 0 0 0 0 0 0 0 0 0 0 0 0 0 0 0 0 0 0 0 0 0 0 0 0 0 0 0 0 0 0 0 0 0 0 0 0 0 0 0 0 0 0 0 0
0 0 0 0 0 0 0 0 0 0 0 0 0 0 0 0 0 0 0 0 0 0 0 0 0 0 0 0 0 0 0 0 0 0 0 0 0 0 0 0 0 0 0 0 0 0 0
0 0 0 0 0 0 0 0 0 0 0 0 0 0 0 0 0 0 0 0 0 0 0 0 0 0 0 0 0 0 0 0 0 0 0 0 0 0 0 0 0 0 0 0 0 -0 0
0 0 0 0 0 0 0 0 0 0 0 0 0 0 0 0 0 0 0 0 0 0 0 0 0 0 0 0 0 0 0 0 0 0 0 0 0 0 0 -0 -0 0 0 0 0 0 0
0 0 0 0 0 0 0 0 0 0 0 0 0 0 0 0 0 0 0 0 0 0 0 0 0 0 0 0 0 0 0 0 0 0 0 0 0 0 0 -0 0 0 0 -0 -0 0 -0
0 0 0 0 0 0 0 0 0 0 0 0 0 0 0 0 0 0 0 0 0 0 0 0 0 0 0 0 0 0 0 0 0 0 0 0 0 -0 -0 -0 -0 0 -0 -0 0 -0 -0
0 0 0 0 0 0 0 0 0 0 0 0 0 0 0 0 0 0 0 0 0 -0 0 0 0 0 0 0 0 0 0 0 0 0 0 -0 -0 -0 -0 -0 -0 -0 -0 0 0 -0 -0
Wind_Speed_500mb
45 48 52 56 58 60 56 55 56 57 58 53 51 46 42 40 31 24 19 15 15 15 16 16 14 14 12 10 15 10 3 2 6 12 14 18 13 7 5 7 3 9 12 40 52 56 54
47 48 49 52 56 59 60 59 58 58 58 56 53 49 45 40 30 21 18 14 12 13 13 13 11 12 11 9 5 8 10 9 10 13 15 16 4 14 12 9 9 5 11 22 21 31 37
45 46 49 52 55 58 61 63 61 60 59 57 55 51 46 37 29 23 17 14 13 13 15 12 12 14 21 30 6 11 9 2 7 11 13 10 12 6 9 12 10 11 11 13 8 11 8
40 44 48 50 53 55 58 61 64 63 61 58 57 51 45 34 26 23 19 14 15 16 15 11 11 15 17 6 19 19 16 13 10 11 19 17 21 19 3 11 18 11 7 8 8 2 12
40 40 44 48 50 54 56 57 61 65 66 62 60 53 44 33 24 21 20 20 20 19 14 11 11 12 17 7 17 18 24 16 12 14 18 22 26 10 4 6 10 11 10 10 14 8 7
41 41 42 45 47 51 54 57 61 64 66 66 65 60 43 33 25 18 23 29 21 16 13 12 15 14 11 1 22 15 17 19 20 17 10 12 5 4 7 9 7 10 10 11 10 8 2
38 41 41 43 46 49 52 52 57 62 65 68 66 64 49 35 28 19 19 21 19 6 15 28 28 32 47 20 11 12 24 22 19 10 4 4 4 11 20 16 17 11 10 21 27 30 9
39 40 41 43 44 44 48 51 54 60 63 65 67 65 54 41 30 23 22 18 22 24 26 42 44 55 49 39 13 22 23 18 11 11 4 8 15 18 11 13 15 16 24 30 22 28 13
42 42 41 41 42 42 42 48 57 62 63 64 67 68 60 54 32 26 18 12 26 23 9 22 14 23 27 26 25 28 32 30 10 8 10 14 20 5 10 14 14 20 15 25 25 12 10
41 43 41 43 42 41 40 47 57 67 69 68 69 70 66 64 23 15 14 15 20 17 6 11 8 8 16 18 10 30 44 29 7 19 11 12 19 18 12 12 11 12 18 18 19 8 13
42 42 43 42 44 44 44 49 59 70 69 77 68 69 67 62 24 24 10 11 16 2 7 5 7 2 12 19 2 8 39 44 19 15 13 20 7 6 12 10 8 14 14 15 18 10 2
43 44 44 44 44 46 49 53 61 69 73 82 72 57 61 49 27 8 7 14 3 8 9 3 9 11 8 12 5 1 16 38 26 11 8 14 5 2 6 10 6 15 12 9 9 5 6
43 44 44 45 47 46 49 55 58 64 76 85 72 50 46 28 3 7 6 5 7 5 11 10 5 2 10 3 1 4 7 13 20 8 4 5 5 6 3 5 8 19 13 9 8 7 26
44 44 46 47 47 50 51 52 57 62 73 88 72 49 30 6 10 7 3 6 6 6 9 15 6 10 6 3 2 4 8 10 10 7 5 6 10 5 5 6 10 6 9 6 14 10 15
45 46 45 46 49 49 48 50 54 59 71 86 70 41 11 9 11 2 5 4 8 4 16 11 18 5 1 1 3 11 5 3 7 6 6 7 8 9 11 8 9 8 10 6 7 11 9
42 45 47 48 49 48 48 49 54 62 72 80 74 39 19 14 9 4 8 6 5 6 18 8 8 5 5 5 5 7 3 2 10 8 4 7 6 7 7 10 8 3 6 0 4 8 11
44 46 47 47 48 48 48 48 53 63 70 76 44 19 15 15 7 7 2 7 9 26 18 7 8 4 2 2 3 5 7 4 1 5 9 5 5 9 7 4 6 3 4 2 4 7 5
46 47 45 44 46 48 49 49 50 58 68 69 29 7 9 14 5 5 2 12 27 14 22 9 6 3 2 3 3 5 4 2 5 13 8 2 8 6 15 12 9 7 9 9 6 7 5
45 46 44 43 45 48 48 47 44 48 60 69 44 14 19 5 2 5 10 13 20 29 20 9 7 6 4 3 4 4 2 5 2 6 11 11 2 4 15 11 8 1 6 8 2 4 10
36 38 38 41 44 45 46 43 40 43 45 49 18 8 12 18 14 6 9 7 9 33 12 16 7 3 5 2 4 5 4 1 11 8 9 16 7 12 12 13 8 11 11 12 12 7 9
33 37 35 38 43 43 41 40 39 38 37 32 9 5 8 8 6 10 3 9 23 11 15 21 7 4 2 4 5 8 3 4 6 4 6 8 9 11 13 19 18 23 26 24 18 29 20
33 35 29 32 34 35 36 38 40 36 27 17 10 10 16 21 25 9 6 5 8 11 8 16 13 20 11 10 13 14 10 8 10 1 5 1 7 5 9 22 19 17 27 25 22 25 25
31 32 32 34 32 31 33 35 36 28 20 9 6 9 8 11 10 7 6 2 7 16 12 27 28 26 20 20 27 34 27 17 13 13 9 8 7 3 8 9 15 9 5 6 7 15 10
34 33 31 34 31 29 29 30 32 24 13 8 8 10 5 7 8 10 14 27 25 11 12 35 49 8 9 17 21 14 13 17 16 13 18 10 8 3 7 10 5 7 3 3 16 14 7
35 35 34 35 31 31 27 23 27 22 14 7 2 8 6 8 12 23 20 12 18 21 29 40 37 29 26 12 6 8 6 7 6 8 8 10 8 2 3 4 14 2 7 8 10 37 4
35 33 31 32 29 28 28 26 22 20 17 13 9 9 10 9 8 8 17 17 9 5 11 13 37 22 7 5 5 2 4 2 6 2 8 10 7 6 3 4 8 4 18 24 21 15 16
35 33 33 32 30 30 28 23 21 20 18 15 16 11 14 12 23 10 8 6 8 7 6 13 23 13 18 5 4 2 1 7 3 3 1 4 3 7 5 7 11 10 20 33 3 11 44
37 36 36 34 33 30 25 23 21 21 18 17 18 15 12 14 39 43 38 29 16 9 4 14 15 6 8 6 3 4 2 3 4 4 2 4 3 4 3 5 10 19 7 6 13 42 57
38 37 42 36 32 29 27 24 22 23 18 18 25 19 21 23 41 57 55 57 60 41 27 9 11 19 2 3 1 2 3 4 4 3 5 1 7 4 10 9 3 12 12 31 38 50 58
Wind_Direction_500mb
16 19 18 16 15 16 13 9 8 6 6 5 1 357 352 347 345 342 334 327 315 307 304 303 305 297 296 277 258 222 189 151 157 174 175 162 181 188 225 236 241 205 239 253 258 260 257
7 10 13 15 14 13 14 11 9 8 6 5 4 358 354 351 352 355 349 343 336 324 316 312 304 292 286 276 285 198 203 247 206 182 169 199 215 299 273 255 162 262 261 274 283 274 264
2 4 6 8 11 11 10 9 10 9 6 4 4 359 354 354 356 1 3 0 353 340 326 315 300 291 278 256 259 176 185 307 229 241 218 253 302 276 320 321 310 284 304 322 245 266 255
1 0 1 4 5 8 9 7 7 7 7 4 3 360 355 354 354 354 356 353 345 343 337 312 291 294 264 241 206 193 199 203 206 232 256 283 298 286 237 302 342 356 49 324 281 326 266
356 358 358 359 1 2 5 6 6 6 5 4 1 360 354 350 348 349 347 335 310 308 313 312 286 296 271 214 246 234 210 220 200 256 276 284 294 257 335 57 3 357 257 262 302 217 236
349 352 355 355 357 358 1 4 5 4 3 3 1 356 351 344 336 334 337 336 323 292 259 303 265 299 246 263 340 259 216 227 248 271 280 228 253 70 36 72 247 261 295 289 283 276 213
342 344 347 350 352 355 356 2 7 5 2 359 360 356 354 339 328 319 331 340 342 298 268 256 259 261 280 296 333 244 216 204 223 235 185 19 88 225 237 208 225 234 247 259 276 277 275
335 338 341 345 347 351 353 357 6 5 2 358 356 354 352 343 311 301 311 332 357 301 298 282 263 254 260 263 292 240 207 197 186 211 124 8 254 242 225 241 230 239 258 273 276 263 211
329 331 335 338 340 343 350 354 357 357 353 351 351 348 342 346 310 286 280 348 353 341 278 296 253 239 233 217 222 234 206 198 176 203 193 198 246 262 244 281 268 262 251 266 251 265 263
324 326 329 332 335 336 339 345 349 349 343 342 339 344 338 340 319 261 251 322 333 339 8 272 232 233 189 205 271 251 217 200 190 210 205 234 263 235 265 254 245 275 277 266 265 207 256
321 322 325 329 330 330 329 330 339 340 338 338 334 333 332 334 305 253 247 295 317 323 332 164 173 246 188 170 318 224 206 202 207 204 127 236 229 264 289 265 339 252 292 279 273 225 116
320 321 322 325 325 328 329 327 329 336 337 337 333 327 325 329 322 228 270 313 308 46 255 341 139 171 139 227 266 323 185 213 236 212 246 249 329 76 237 282 238 295 330 344 19 121 239
320 320 321 323 324 327 330 332 333 333 337 337 335 326 323 321 340 151 258 308 52 173 313 4 12 87 203 270 337 24 266 183 203 164 241 346 251 276 222 308 17 28 47 320 293 257 252
332 328 326 324 324 325 330 331 331 334 339 339 334 327 327 292 207 209 250 70 192 252 24 338 337 327 111 0 236 306 7 350 37 108 124 169 308 1 45 186 217 189 175 225 268 240 269
333 334 332 328 328 328 330 333 334 334 339 338 336 333 357 174 169 54 50 112 217 260 348 337 306 284 341 25 356 22 320 150 17 35 163 143 270 303 251 253 191 186 191 83 252 224 255
332 333 335 335 330 330 333 335 335 335 338 339 338 340 43 176 186 15 73 232 263 286 323 296 250 215 217 21 56 38 295 178 181 208 151 201 281 249 300 344 32 152 139 34 219 249 218
326 327 330 331 335 336 339 340 339 339 341 342 344 344 354 180 177 41 128 250 274 308 314 292 302 264 90 113 253 214 251 320 141 81 72 109 129 285 17 216 213 140 101 277 249 242 273
317 318 324 327 333 336 339 342 346 347 348 351 355 343 5 168 34 60 345 328 313 308 346 307 327 37 166 165 235 250 234 265 176 153 151 127 147 241 247 273 240 175 183 181 170 285 302
308 310 313 319 325 330 336 340 349 359 357 350 338 300 17 347 118 1 329 337 327 326 322 327 10 1 17 180 329 223 17 30 88 149 171 182 197 341 340 353 353 259 219 223 68 77 232
301 299 302 312 317 325 332 338 346 2 360 349 343 343 336 42 61 75 13 301 309 323 316 351 286 33 1 312 256 264 266 115 348 234 188 133 154 171 204 225 190 274 249 216 188 202 251
312 310 311 311 312 315 323 333 341 355 7 356 355 328 4 317 348 325 76 282 277 323 325 325 333 38 243 274 265 237 219 301 321 150 90 112 212 202 239 248 251 263 272 272 231 241 233
308 309 318 317 313 308 315 327 337 343 14 6 353 353 345 300 296 274 155 246 270 311 324 312 324 321 275 224 219 250 201 195 212 139 119 88 257 222 270 259 268 274 286 282 300 265 251
309 311 310 315 313 309 312 320 332 342 358 15 321 304 301 285 301 309 242 357 318 349 270 268 306 296 276 250 247 241 231 221 216 183 191 172 185 103 264 314 307 290 0 49 314 285 279
300 303 300 307 305 312 301 310 319 331 331 4 349 340 284 271 283 275 311 300 294 274 266 289 301 229 295 303 292 280 265 252 232 244 189 156 142 149 272 346 291 249 216 269 337 286 274
298 296 300 300 301 301 301 299 302 315 306 294 318 332 251 277 287 289 284 298 303 296 279 280 291 313 308 324 12 356 340 39 38 8 195 182 123 152 250 199 282 214 16 334 359 303 62
294 295 298 298 299 297 293 290 290 298 295 262 269 311 270 290 250 313 322 298 295 280 302 270 325 351 335 68 58 307 256 127 318 196 63 83 88 126 212 236 259 50 358 330 310 266 9
284 287 298 299 300 299 290 286 276 279 283 258 257 296 262 255 280 295 246 285 293 284 271 298 335 330 10 48 63 219 314 328 324 289 13 25 24 188 224 256 279 33 353 314 274 299 323
277 279 290 296 295 290 283 279 267 266 272 250 256 271 294 258 279 273 258 259 255 230 258 325 337 355 14 51 56 288 78 275 9 344 293 172 231 252 324 273 286 18 340 358 279 308 307
270 278 286 290 289 282 273 267 260 260 270 244 249 257 301 276 270 283 273 268 267 259 264 289 294 294 281 74 351 346 319 10 148 284 2 234 180 230 190 232 269 325 292 307 306 304 306
Wind_Speed_850mb
45 48 52 56 58 60 56 55 56 57 58 53 51 46 42 40 31 24 19 15 15 15 16 16 14 14 12 10 15 10 3 2 6 12 14 18 13 7 5 7 3 9 12 40 52 56 54
47 48 49 52 56 59 60 59 58 58 58 56 53 49 45 40 30 21 18 14 12 13 13 13 11 12 11 9 5 8 10 9 10 13 15 16 4 14 12 9 9 5 11 22 21 31 37
45 46 49 52 55 58 61 63 61 60 59 57 55 51 46 37 29 23 17 14 13 13 15 12 12 14 21 30 6 11 9 2 7 11 13 10 12 6 9 12 10 11 11 13 8 11 8
40 44 48 50 53 55 58 61 64 63 61 58 57 51 45 34 26 23 19 14 15 16 15 11 11 15 17 6 19 19 16 13 10 11 19 17 21 19 3 11 18 11 7 8 8 2 12
40 40 44 48 50 54 56 57 61 65 66 62 60 53 44 33 24 21 20 20 20 19 14 11 11 12 17 7 17 18 24 16 12 14 18 22 26 10 4 6 10 11 10 10 14 8 7
41 41 42 45 47 51 54 57 61 64 66 66 65 60 43 33 25 18 23 29 21 16 13 12 15 14 11 1 22 15 17 19 20 17 10 12 5 4 7 9 7 10 10 11 10 8 2
38 41 41 43 46 49 52 52 57 62 65 68 66 64 49 35 28 19 19 21 19 6 15 28 28 32 47 20 11 12 24 22 19 10 4 4 4 11 20 16 17 11 10 21 27 30 9
39 40 41 43 44 44 48 51 54 60 63 65 67 65 54 41 30 23 22 18 22 24 26 42 44 55 49 39 13 22 23 18 11 11 4 8 15 18 11 13 15 16 24 30 22 28 13
42 42 41 41 42 42 42 48 57 62 63 64 67 68 60 54 32 26 18 12 26 23 9 22 14 23 27 26 25 28 32 30 10 8 10 14 20 5 10 14 14 20 15 25 25 12 10
41 43 41 43 42 41 40 47 57 67 69 68 69 70 66 64 23 15 14 15 20 17 6 11 8 8 16 18 10 30 44 29 7 19 11 12 19 18 12 12 11 12 18 18 19 8 13
42 42 43 42 44 44 44 49 59 70 69 77 68 69 67 62 24 24 10 11 16 2 7 5 7 2 12 19 2 8 39 44 19 15 13 20 7 6 12 10 8 14 14 15 18 10 2
43 44 44 44 44 46 49 53 61 69 73 82 72 57 61 49 27 8 7 14 3 8 9 3 9 11 8 12 5 1 16 38 26 11 8 14 5 2 6 10 6 15 12 9 9 5 6
43 44 44 45 47 46 49 55 58 64 76 85 72 50 46 28 3 7 6 5 7 5 11 10 5 2 10 3 1 4 7 13 20 8 4 5 5 6 3 5 8 19 13 9 8 7 26
44 44 46 47 47 50 51 52 57 62 73 88 72 49 30 6 10 7 3 6 6 6 9 15 6 10 6 3 2 4 8 10 10 7 5 6 10 5 5 6 10 6 9 6 14 10 15
45 46 45 46 49 49 48 50 54 59 71 86 70 41 11 9 11 2 5 4 8 4 16 11 18 5 1 1 3 11 5 3 7 6 6 7 8 9 11 8 9 8 10 6 7 11 9
42 45 47 48 49 48 48 49 54 62 72 80 74 39 19 14 9 4 8 6 5 6 18 8 8 5 5 5 5 7 3 2 10 8 4 7 6 7 7 10 8 3 6 0 4 8 11
44 46 47 47 48 48 48 48 53 63 70 76 44 19 15 15 7 7 2 7 9 26 18 7 8 4 2 2 3 5 7 4 1 5 9 5 5 9 7 4 6 3 4 2 4 7 5
46 47 45 44 46 48 49 49 50 58 68 69 29 7 9 14 5 5 2 12 27 14 22 9 6 3 2 3 3 5 4 2 5 13 8 2 8 6 15 12 9 7 9 9 6 7 5
45 46 44 43 45 48 48 47 44 48 60 69 44 14 19 5 2 5 10 13 20 29 20 9 7 6 4 3 4 4 2 5 2 6 11 11 2 4 15 11 8 1 6 8 2 4 10
36 38 38 41 44 45 46 43 40 43 45 49 18 8 12 18 14 6 9 7 9 33 12 16 7 3 5 2 4 5 4 1 11 8 9 16 7 12 12 13 8 11 11 12 12 7 9
33 37 35 38 43 43 41 40 39 38 37 32 9 5 8 8 6 10 3 9 23 11 15 21 7 4 2 4 5 8 3 4 6 4 6 8 9 11 13 19 18 23 26 24 18 29 20
33 35 29 32 34 35 36 38 40 36 27 17 10 10 16 21 25 9 6 5 8 11 8 16 13 20 11 10 13 14 10 8 10 1 5 1 7 5 9 22 19 17 27 25 22 25 25
31 32 32 34 32 31 33 35 36 28 20 9 6 9 8 11 10 7 6 2 7 16 12 27 28 26 20 20 27 34 27 17 13 13 9 8 7 3 8 9 15 9 5 6 7 15 10
34 33 31 34 31 29 29 30 32 24 13 8 8 10 5 7 8 10 14 27 25 11 12 35 49 8 9 17 21 14 13 17 16 13 18 10 8 3 7 10 5 7 3 3 16 14 7
35 35 34 35 31 31 27 23 27 22 14 7 2 8 6 8 12 23 20 12 18 21 29 40 37 29 26 12 6 8 6 7 6 8 8 10 8 2 3 4 14 2 7 8 10 37 4
35 33 31 32 29 28 28 26 22 20 17 13 9 9 10 9 8 8 17 17 9 5 11 13 37 22 7 5 5 2 4 2 6 2 8 10 7 6 3 4 8 4 18 24 21 15 16
35 33 33 32 30 30 28 23 21 20 18 15 16 11 14 12 23 10 8 6 8 7 6 13 23 13 18 5 4 2 1 7 3 3 1 4 3 7 5 7 11 10 20 33 3 11 44
37 36 36 34 33 30 25 23 21 21 18 17 18 15 12 14 39 43 38 29 16 9 4 14 15 6 8 6 3 4 2 3 4 4 2 4 3 4 3 5 10 19 7 6 13 42 57
38 37 42 36 32 29 27 24 22 23 18 18 25 19 21 23 41 57 55 57 60 41 27 9 11 19 2 3 1 2 3 4 4 3 5 1 7 4 10 9 3 12 12 31 38 50 58
Wind_Direction_850mb
16 19 18 16 15 16 13 9 8 6 6 5 1 357 352 347 345 342 334 327 315 307 304 303 305 297 296 277 258 222 189 151 157 174 175 162 181 188 225 236 241 205 239 253 258 260 257
7 10 13 15 14 13 14 11 9 8 6 5 4 358 354 351 352 355 349 343 336 324 316 312 304 292 286 276 285 198 203 247 206 182 169 199 215 299 273 255 162 262 261 274 283 274 264
2 4 6 8 11 11 10 9 10 9 6 4 4 359 354 354 356 1 3 0 353 340 326 315 300 291 278 256 259 176 185 307 229 241 218 253 302 276 320 321 310 284 304 322 245 266 255
1 0 1 4 5 8 9 7 7 7 7 4 3 360 355 354 354 354 356 353 345 343 337 312 291 294 264 241 206 193 199 203 206 232 256 283 298 286 237 302 342 356 49 324 281 326 266
356 358 358 359 1 2 5 6 6 6 5 4 1 360 354 350 348 349 347 335 310 308 313 312 286 296 271 214 246 234 210 220 200 256 276 284 294 257 335 57 3 357 257 262 302 217 236
349 352 355 355 357 358 1 4 5 4 3 3 1 356 351 344 336 334 337 336 323 292 259 303 265 299 246 263 340 259 216 227 248 271 280 228 253 70 36 72 247 261 295 289 283 276 213
342 344 347 350 352 355 356 2 7 5 2 359 360 356 354 339 328 319 331 340 342 298 268 256 259 261 280 296 333 244 216 204 223 235 185 19 88 225 237 208 225 234 247 259 276 277 275
335 338 341 345 347 351 353 357 6 5 2 358 356 354 352 343 311 301 311 332 357 301 298 282 263 254 260 263 292 240 207 197 186 211 124 8 254 242 225 241 230 239 258 273 276 263 211
329 331 335 338 340 343 350 354 357 357 353 351 351 348 342 346 310 286 280 348 353 341 278 296 253 239 233 217 222 234 206 198 176 203 193 198 246 262 244 281 268 262 251 266 251 265 263
324 326 329 332 335 336 339 345 349 349 343 342 339 344 338 340 319 261 251 322 333 339 8 272 232 233 189 205 271 251 217 200 190 210 205 234 263 235 265 254 245 275 277 266 265 207 256
321 322 325 329 330 330 329 330 339 340 338 338 334 333 332 334 305 253 247 295 317 323 332 164 173 246 188 170 318 224 206 202 207 204 127 236 229 264 289 265 339 252 292 279 273 225 116
320 321 322 325 325 328 329 327 329 336 337 337 333 327 325 329 322 228 270 313 308 46 255 341 139 171 139 227 266 323 185 213 236 212 246 249 329 76 237 282 238 295 330 344 19 121 239
320 320 321 323 324 327 330 332 333 333 337 337 335 326 323 321 340 151 258 308 52 173 313 4 12 87 203 270 337 24 266 183 203 164 241 346 251 276 222 308 17 28 47 320 293 257 252
332 328 326 324 324 325 330 331 331 334 339 339 334 327 327 292 207 209 250 70 192 252 24 338 337 327 111 0 236 306 7 350 37 108 124 169 308 1 45 186 217 189 175 225 268 240 269
333 334 332 328 328 328 330 333 334 334 339 338 336 333 357 174 169 54 50 112 217 260 348 337 306 284 341 25 356 22 320 150 17 35 163 143 270 303 251 253 191 186 191 83 252 224 255
332 333 335 335 330 330 333 335 335 335 338 339 338 340 43 176 186 15 73 232 263 286 323 296 250 215 217 21 56 38 295 178 181 208 151 201 281 249 300 344 32 152 139 34 219 249 218
326 327 330 331 335 336 339 340 339 339 341 342 344 344 354 180 177 41 128 250 274 308 314 292 302 264 90 113 253 214 251 320 141 81 72 109 129 285 17 216 213 140 101 277 249 242 273
317 318 324 327 333 336 339 342 346 347 348 351 355 343 5 168 34 60 345 328 313 308 346 307 327 37 166 165 235 250 234 265 176 153 151 127 147 241 247 273 240 175 183 181 170 285 302
308 310 313 319 325 330 336 340 349 359 357 350 338 300 17 347 118 1 329 337 327 326 322 327 10 1 17 180 329 223 17 30 88 149 171 182 197 341 340 353 353 259 219 223 68 77 232
301 299 302 312 317 325 332 338 346 2 360 349 343 343 336 42 61 75 13 301 309 323 316 351 286 33 1 312 256 264 266 115 348 234 188 133 154 171 204 225 190 274 249 216 188 202 251
312 310 311 311 312 315 323 333 341 355 7 356 355 328 4 317 348 325 76 282 277 323 325 325 333 38 243 274 265 237 219 301 321 150 90 112 212 202 239 248 251 263 272 272 231 241 233
308 309 318 317 313 308 315 327 337 343 14 6 353 353 345 300 296 274 155 246 270 311 324 312 324 321 275 224 219 250 201 195 212 139 119 88 257 222 270 259 268 274 286 282 300 265 251
309 311 310 315 313 309 312 320 332 342 358 15 321 304 301 285 301 309 242 357 318 349 270 268 306 296 276 250 247 241 231 221 216 183 191 172 185 103 264 314 307 290 0 49 314 285 279
300 303 300 307 305 312 301 310 319 331 331 4 349 340 284 271 283 275 311 300 294 274 266 289 301 229 295 303 292 280 265 252 232 244 189 156 142 149 272 346 291 249 216 269 337 286 274
298 296 300 300 301 301 301 299 302 315 306 294 318 332 251 277 287 289 284 298 303 296 279 280 291 313 308 324 12 356 340 39 38 8 195 182 123 152 250 199 282 214 16 334 359 303 62
294 295 298 298 299 297 293 290 290 298 295 262 269 311 270 290 250 313 322 298 295 280 302 270 325 351 335 68 58 307 256 127 318 196 63 83 88 126 212 236 259 50 358 330 310 266 9
284 287 298 299 300 299 290 286 276 279 283 258 257 296 262 255 280 295 246 285 293 284 271 298 335 330 10 48 63 219 314 328 324 289 13 25 24 188 224 256 279 33 353 314 274 299 323
277 279 290 296 295 290 283 279 267 266 272 250 256 271 294 258 279 273 258 259 255 230 258 325 337 355 14 51 56 288 78 275 9 344 293 172 231 252 324 273 286 18 340 358 279 308 307
270 278 286 290 289 282 273 267 260 260 270 244 249 257 301 276 270 283 273 268 267 259 264 289 294 294 281 74 351 346 319 10 148 284 2 234 180 230 190 232 269 325 292 307 306 304 306